Location: Newark
(25.4800°N, 85.7200°E)
Time: 04:36:11
(UTC+00:00)

Transit 4A - Pass Details

Date: 29 August 2019
Orbit: 867 x 978 km, 66.8° (Epoch: 20 October)

Event Time Altitude Azimuth Distance (km) Brightness Sun altitude
Rises 21:06:09 0° 325° (NW) 3,566 - -36.4°
Reaches altitude 10° 21:08:52 10° 317° (NW) 2,603 - -35.9°
Maximum altitude 21:14:19 37° 252° (WSW) 1,366 - -34.8°
Drops below altitude 10° 21:19:39 10° 187° (S) 2,530 - -33.8°
Sets 21:22:16 0° 179° (S) 3,454 - -33.3°
